Location: DARK SKY Beskydy - Park tmavé oblohy, www.darkskybeskydy.cz
(49.4926°N, 18.5016°E)
Time: 09:52:40
(UTC+01:00)

BlueWalker 3 - Pass Details

Date: 01 December 2022
Orbit: 499 x 517 km, 53.2° (Epoch: 29 January)

Event Time Altitude Azimuth Distance (km) Brightness Sun altitude
Rises 17:13:41 0° 267° (W) 2,629 7.2 -13.1°
Reaches altitude 10° 17:15:56 10° 273° (W) 1,739 5.9 -13.5°
Maximum altitude 17:19:47 52° 350° (N) 642 2.4 -14.1°
Enters shadow 17:21:48 25° 57° (ENE) 1,063 3.0 -14.4°
